Location: Austin
(30.3000°N, 97.7500°W)
Time: 07:17:38
(UTC-05:00)

Cosmos 1656 Rocket - Pass Details

Date: 16 June 2025
Orbit: 794 x 843 km, 71.1° (Epoch: 07 July)

Event Time Altitude Azimuth Distance (km) Brightness Sun altitude
Exits shadow 03:23:38 41° 104° (ESE) 1,197 4.5 -30.0°
Drops below altitude 10° 03:28:51 10° 36° (NE) 2,449 7.0 -29.4°
Sets 03:31:24 0° 29° (NNE) 3,380 8.1 -29.1°
